Weather in Druzhina

Russia / Sakha (Yakutia) Republic     68°12′03″N   145°18′59″E
temp.,
°C
wind,
m/s
gust,
m/s
humid.,
%
clouds,
%
prec.,
mm/h
press.,
hPa
HPBL,
m
11 may, tue
tue1123:00−3ne348566 0.0 101944
02:00−3nne3589100 0.0 1020100
05:00−3nne3494100 0.0 1020124
08:00−3nne348350 0.0 1021304
11:00−2n337898 0.0 1022582
14:00−1n3369100 0.1 1021908
17:00−1n3362100 0.1 10211015
20:00−2nne336862 0.0 1022686
12 may, wed
wed1223:00−3nne228198 0.0 102226
02:00−3nne2282100 0.0 102119
05:00−3nne228796 0.1 102149
08:00−3ne227587 0.0 1021425
11:00−1ene126598 0.1 1020770
14:000ene2362100 0.1 1018890
17:00+1e3458100 0.1 10161014
20:00+1e4459100 0.0 1015956
13 may, thu
thu1323:00−1ne4686100 0.0 1014196
02:00−1ese2280100 0.0 101336
05:00−2nne1186100 0.1 1012143
08:00−1ne4481100 0.1 1012356
11:00+1ne446493 0.1 1011783
14:00+2ne4357100 0.0 10101192
17:00+2ne5462100 0.0 1011971
20:00+1ne556399 0.0 1012841
14 may, fri
fri1423:00−1nne347456 0.0 101362
02:00−2nne227497 0.0 101430
05:00−2ene00736 0.0 101519
08:000sw116330 0.0 1015539
11:00+2sw225550 0.0 1015925
14:00+4ssw335181 0.0 10141101
17:00+5ssw435187 0.0 10141073
20:00+4ssw4453100 0.0 1014823
15 may, sat
sat1523:00+2s466931 0.0 1014126
02:00−1sse477673 0.0 1014143
05:000sse597599 0.0 1014241
08:00+2sse696586 0.0 1014364
11:00+5sse6753100 0.0 1013610
14:00+8sse564357 0.0 1012854
17:00+9sse55395 0.0 10121043
20:00+9s55425 0.0 10121025